Tracking 29892 objects as of 21-Nov-2024
HD Live streaming from Space Station
objects crossing your sky now

STARLINK-32395

Track STARLINK-32395 now!
10-day predictions
STARLINK-32395 is classified as:


NORAD ID: 61679
Int'l Code: 2024-193U
Perigee: 423.1 km
Apogee: 424.6 km
Inclination: 53.2 °
Period: 92.9 minutes
Semi major axis: 6794 km
RCS: Unknown
Launch date: October 26, 2024
Source: United States (US)
Launch site: AIR FORCE EASTERN TEST RANGE (AFETR)
Your satellite tracking list
Your tracking list is empty




NASA's NSSDC Master Catalog

Two Line Element Set (TLE):
1 61679U 24193U   24324.93182973 -.00000478  00000-0 -45890-6 0  9998
2 61679  53.1600 140.8576 0001110  85.9157 274.1980 15.50005042  3775
Source of the keplerian elements: AFSPC